GSAT0214 (GALILEO 18)

Last updated on Sat Apr 04 2026 00:02:37 GMT+0000 (Coordinated Universal Time)

1 41862U 16069D 26093.61621133 .00000029 00000+0 00000+0 0 9995 2 41862 55.4485 103.1435 0004834 302.8522 57.1324 1.70474609 58375
UTC large
Height (km)
Speed (km/s)
/
Latitude / Longitude
Inclination (degrees)
Orbital Period (minutes)
Azimuth
Elevation
Range (km)
Doppler Factor

Next 0 passes for location: London (51.5072 / 0.1276)

Sorry there are no passes over London.